DKH2203 ZSPD-ZSQD

Flight info

Callsign DKH2203
Flight time 1h 10m
Altitude 36100
Route IBEGI B221 IDVEL IDV81A
Aircraft A321/M-SDE3FGHIRWY/LB1

Departure

Time 2026-05-05 14:20
Airport Shanghai Pudong International Airport (ZSPD)

Arrival

Time 2026-05-05 15:31
Airport Qingdao Jiaodong International Airport (ZSQD)
Time Latitude Longitude Altitude Speed Heading
2026-05-05 13:38 31.13487 121.81249 23 ft 0 kts 63°
2026-05-05 13:56 31.13484 121.81242 23 ft 4 kts 64°
2026-05-05 13:56 31.13474 121.81213 25 ft 4 kts 76°
2026-05-05 13:56 31.13470 121.81182 26 ft 4 kts 93°
2026-05-05 13:57 31.13476 121.81153 27 ft 4 kts 122°
2026-05-05 13:57 31.13491 121.81135 26 ft 1 kts 162°
2026-05-05 13:57 31.13492 121.81135 26 ft 0 kts 162°
2026-05-05 14:00 31.13478 121.81140 23 ft 5 kts 162°
2026-05-05 14:00 31.13444 121.81153 23 ft 10 kts 162°
2026-05-05 14:00 31.13310 121.81205 23 ft 20 kts 162°
2026-05-05 14:00 31.13174 121.81256 23 ft 15 kts 162°
2026-05-05 14:01 31.13113 121.81330 23 ft 14 kts 85°
2026-05-05 14:01 31.13138 121.81433 24 ft 13 kts 71°
2026-05-05 14:01 31.13166 121.81529 23 ft 12 kts 71°
2026-05-05 14:01 31.13191 121.81620 25 ft 11 kts 72°
2026-05-05 14:02 31.13214 121.81706 23 ft 11 kts 72°
2026-05-05 14:02 31.13230 121.81764 23 ft 2 kts 72°
2026-05-05 14:02 31.13231 121.81769 22 ft 0 kts 72°
2026-05-05 14:03 31.13232 121.81774 22 ft 3 kts 72°
2026-05-05 14:04 31.13252 121.81842 22 ft 14 kts 72°
2026-05-05 14:04 31.13319 121.81924 22 ft 15 kts 356°
2026-05-05 14:04 31.13415 121.81890 22 ft 14 kts 342°
2026-05-05 14:04 31.13501 121.81857 24 ft 13 kts 342°
2026-05-05 14:05 31.13580 121.81827 22 ft 11 kts 342°
2026-05-05 14:05 31.13650 121.81800 23 ft 10 kts 342°
2026-05-05 14:05 31.13712 121.81778 23 ft 9 kts 342°
2026-05-05 14:05 31.13794 121.81748 23 ft 17 kts 342°
2026-05-05 14:06 31.13939 121.81692 23 ft 27 kts 341°
2026-05-05 14:06 31.14133 121.81619 23 ft 29 kts 343°
2026-05-05 14:06 31.14292 121.81560 23 ft 23 kts 342°
2026-05-05 14:06 31.14441 121.81504 23 ft 22 kts 342°
2026-05-05 14:07 31.14584 121.81450 23 ft 21 kts 342°
2026-05-05 14:07 31.14719 121.81399 23 ft 20 kts 342°
2026-05-05 14:07 31.14850 121.81349 23 ft 19 kts 342°
2026-05-05 14:07 31.14975 121.81302 23 ft 18 kts 342°
2026-05-05 14:08 31.15093 121.81257 23 ft 17 kts 342°
2026-05-05 14:08 31.15205 121.81214 23 ft 16 kts 342°
2026-05-05 14:08 31.15311 121.81174 23 ft 16 kts 342°
2026-05-05 14:08 31.15410 121.81137 22 ft 13 kts 342°
2026-05-05 14:09 31.15493 121.81106 22 ft 12 kts 342°
2026-05-05 14:09 31.15567 121.81078 22 ft 10 kts 342°
2026-05-05 14:09 31.15625 121.81056 22 ft 7 kts 342°
2026-05-05 14:09 31.15658 121.81044 22 ft 4 kts 342°
2026-05-05 14:10 31.15666 121.81041 22 ft 1 kts 342°
2026-05-05 14:10 31.15668 121.81040 22 ft 0 kts 342°
2026-05-05 14:10 31.15697 121.81029 22 ft 9 kts 342°
2026-05-05 14:10 31.15783 121.80997 22 ft 13 kts 343°
2026-05-05 14:11 31.15844 121.81036 22 ft 10 kts 64°
2026-05-05 14:11 31.15849 121.81052 23 ft 0 kts 70°
2026-05-05 14:12 31.15849 121.81053 23 ft 1 kts 70°
2026-05-05 14:13 31.15851 121.81060 23 ft 0 kts 70°
2026-05-05 14:16 31.15854 121.81069 1 ft 3 kts 70°
2026-05-05 14:16 31.15873 121.81139 21 ft 14 kts 84°
2026-05-05 14:17 31.15811 121.81214 22 ft 11 kts 160°
2026-05-05 14:17 31.15796 121.81219 22 ft 0 kts 161°
2026-05-05 14:19 31.15748 121.81238 22 ft 29 kts 163°
2026-05-05 14:19 31.15319 121.81399 22 ft 97 kts 162°
2026-05-05 14:20 31.14504 121.81707 27 ft 146 kts 162°
2026-05-05 14:20 31.13463 121.82098 404 ft 154 kts 162°
2026-05-05 14:20 31.12455 121.82481 1081 ft 150 kts 166°
2026-05-05 14:20 31.11484 121.82874 1783 ft 146 kts 164°
2026-05-05 14:21 31.10478 121.83274 2090 ft 162 kts 165°
2026-05-05 14:21 31.09727 121.83612 2211 ft 179 kts 157°
2026-05-05 14:21 31.09197 121.83958 2281 ft 191 kts 150°
2026-05-05 14:21 31.08054 121.84919 2402 ft 214 kts 147°
2026-05-05 14:22 31.06789 121.85988 2711 ft 232 kts 147°
2026-05-05 14:22 31.05449 121.87116 3170 ft 247 kts 146°
2026-05-05 14:22 31.04036 121.88305 3935 ft 255 kts 145°
2026-05-05 14:22 31.02578 121.89531 4648 ft 263 kts 145°
2026-05-05 14:23 31.01091 121.90816 4895 ft 267 kts 141°
2026-05-05 14:23 30.99693 121.92240 4947 ft 267 kts 139°
2026-05-05 14:23 30.98322 121.93695 4949 ft 267 kts 138°
2026-05-05 14:23 30.96956 121.95163 4950 ft 268 kts 138°
2026-05-05 14:24 30.95587 121.96634 4963 ft 267 kts 137°
2026-05-05 14:24 30.94360 121.98247 4964 ft 267 kts 122°
2026-05-05 14:24 30.93710 122.00273 4968 ft 271 kts 99°
2026-05-05 14:24 30.93798 122.02487 5543 ft 277 kts 76°
2026-05-05 14:25 30.94373 122.04634 6448 ft 278 kts 72°
2026-05-05 14:25 30.94972 122.06791 7250 ft 281 kts 72°
2026-05-05 14:25 30.95655 122.08938 8011 ft 286 kts 61°
2026-05-05 14:25 30.96972 122.10668 8735 ft 290 kts 34°
2026-05-05 14:26 30.98841 122.11524 9448 ft 293 kts
2026-05-05 14:26 31.00866 122.11295 10158 ft 296 kts 342°
2026-05-05 14:26 31.02010 122.10877 10352 ft 307 kts 341°
2026-05-05 14:26 31.03044 122.10490 10437 ft 319 kts 341°
2026-05-05 14:27 31.05194 122.09672 10676 ft 338 kts 341°
2026-05-05 14:27 31.07451 122.08812 11269 ft 344 kts 341°
2026-05-05 14:27 31.09740 122.07947 11969 ft 347 kts 341°
2026-05-05 14:27 31.12052 122.07082 12681 ft 350 kts 341°
2026-05-05 14:28 31.14385 122.06217 13400 ft 353 kts 341°
2026-05-05 14:28 31.16740 122.05346 14072 ft 356 kts 341°
2026-05-05 14:28 31.19109 122.04465 14698 ft 359 kts 340°
2026-05-05 14:28 31.21491 122.03573 15393 ft 359 kts 340°
2026-05-05 14:29 31.23873 122.02687 16076 ft 361 kts 340°
2026-05-05 14:29 31.26273 122.01793 16714 ft 363 kts 340°
2026-05-05 14:29 31.28686 122.00890 17363 ft 365 kts 340°
2026-05-05 14:29 31.31112 121.99981 17975 ft 368 kts 340°
2026-05-05 14:30 31.33562 121.99062 18542 ft 371 kts 340°
2026-05-05 14:30 31.36025 121.98136 19064 ft 373 kts 340°
2026-05-05 14:30 31.38509 121.97202 19592 ft 376 kts 340°
2026-05-05 14:30 31.41004 121.96265 20082 ft 378 kts 340°
2026-05-05 14:31 31.43521 121.95316 20577 ft 382 kts 340°
2026-05-05 14:31 31.46058 121.94356 21066 ft 384 kts 340°
2026-05-05 14:31 31.48609 121.93387 21563 ft 387 kts 340°
2026-05-05 14:31 31.51177 121.92408 22057 ft 390 kts 339°
2026-05-05 14:32 31.53767 121.91422 22547 ft 392 kts 340°
2026-05-05 14:32 31.56372 121.90431 23036 ft 395 kts 340°
2026-05-05 14:32 31.58995 121.89434 23509 ft 398 kts 340°
2026-05-05 14:32 31.61639 121.88430 23918 ft 400 kts 340°
2026-05-05 14:33 31.64295 121.87421 24301 ft 403 kts 340°
2026-05-05 14:33 31.66971 121.86404 24672 ft 405 kts 340°
2026-05-05 14:33 31.69660 121.85383 25067 ft 407 kts 340°
2026-05-05 14:33 31.72366 121.84357 25467 ft 409 kts 340°
2026-05-05 14:34 31.75082 121.83328 25850 ft 411 kts 340°
2026-05-05 14:34 31.77812 121.82287 26223 ft 414 kts 340°
2026-05-05 14:34 31.80558 121.81238 26592 ft 416 kts 340°
2026-05-05 14:34 31.83320 121.80182 26955 ft 418 kts 340°
2026-05-05 14:35 31.86097 121.79121 27280 ft 421 kts 341°
2026-05-05 14:35 31.88954 121.78358 27707 ft 423 kts 351°
2026-05-05 14:35 31.91852 121.77998 28078 ft 425 kts 352°
2026-05-05 14:35 31.94837 121.77649 28450 ft 427 kts 353°
2026-05-05 14:36 31.97758 121.77309 28870 ft 427 kts 353°
2026-05-05 14:36 32.00714 121.76965 29237 ft 428 kts 353°
2026-05-05 14:36 32.03684 121.76617 29569 ft 430 kts 353°
2026-05-05 14:36 32.06668 121.76266 29882 ft 432 kts 353°
2026-05-05 14:37 32.07692 121.76146 29986 ft 432 kts 353°
2026-05-05 14:37 32.10193 121.75851 30213 ft 434 kts 353°
2026-05-05 14:37 32.13203 121.75495 30455 ft 436 kts 353°
2026-05-05 14:38 32.16230 121.75137 30697 ft 438 kts 353°
2026-05-05 14:38 32.19276 121.74776 30942 ft 441 kts 353°
2026-05-05 14:38 32.22338 121.74414 31188 ft 443 kts 353°
2026-05-05 14:38 32.25405 121.74051 31521 ft 443 kts 352°
2026-05-05 14:39 32.28467 121.73684 31872 ft 443 kts 352°
2026-05-05 14:39 32.31531 121.73317 32213 ft 443 kts 352°
2026-05-05 14:39 32.34599 121.72950 32542 ft 443 kts 352°
2026-05-05 14:39 32.37664 121.72583 32875 ft 443 kts 352°
2026-05-05 14:40 32.40735 121.72216 33204 ft 443 kts 352°
2026-05-05 14:40 32.43802 121.71850 33556 ft 443 kts 352°
2026-05-05 14:40 32.46867 121.71486 33932 ft 442 kts 352°
2026-05-05 14:40 32.49927 121.71126 34236 ft 442 kts 352°
2026-05-05 14:41 32.52986 121.70765 34508 ft 442 kts 351°
2026-05-05 14:41 32.56043 121.70401 34776 ft 442 kts 351°
2026-05-05 14:41 32.59106 121.70032 35033 ft 442 kts 351°
2026-05-05 14:41 32.62168 121.69661 35123 ft 440 kts 351°
2026-05-05 14:42 32.68203 121.68946 35142 ft 432 kts 351°
2026-05-05 14:42 32.74168 121.68237 35139 ft 430 kts 351°
2026-05-05 14:43 32.77914 121.67785 35140 ft 430 kts 351°
2026-05-05 14:43 32.79926 121.67541 35138 ft 430 kts 351°
2026-05-05 14:44 32.84304 121.67006 35137 ft 430 kts 351°
2026-05-05 14:44 32.87277 121.66644 34932 ft 428 kts 351°
2026-05-05 14:44 32.87701 121.66593 34602 ft 430 kts 352°
2026-05-05 14:45 32.90421 121.66255 32011 ft 478 kts 353°
2026-05-05 14:45 32.93676 121.65847 31958 ft 457 kts 353°
2026-05-05 14:45 32.96758 121.65465 32047 ft 436 kts 353°
2026-05-05 14:45 32.99729 121.65113 31996 ft 424 kts 353°
2026-05-05 14:46 33.02662 121.64774 32146 ft 424 kts 353°
2026-05-05 14:46 33.05598 121.64436 32523 ft 423 kts 353°
2026-05-05 14:46 33.08529 121.64093 32874 ft 423 kts 353°
2026-05-05 14:46 33.11460 121.63742 33205 ft 423 kts 353°
2026-05-05 14:47 33.14389 121.63386 33546 ft 423 kts 353°
2026-05-05 14:47 33.17309 121.63028 33946 ft 421 kts 353°
2026-05-05 14:47 33.20219 121.62668 34252 ft 420 kts 352°
2026-05-05 14:47 33.23127 121.62287 34509 ft 420 kts 349°
2026-05-05 14:48 33.25977 121.61535 34746 ft 419 kts 341°
2026-05-05 14:48 33.28693 121.60300 34980 ft 418 kts 335°
2026-05-05 14:48 33.31369 121.58913 35120 ft 419 kts 335°
2026-05-05 14:48 33.34044 121.57530 35128 ft 419 kts 335°
2026-05-05 14:49 33.39397 121.54774 35136 ft 418 kts 336°
2026-05-05 14:49 33.44736 121.52032 35109 ft 417 kts 336°
2026-05-05 14:50 33.50072 121.49289 35124 ft 416 kts 336°
2026-05-05 14:50 33.55380 121.46554 35123 ft 415 kts 336°
2026-05-05 14:51 33.60687 121.43813 35123 ft 415 kts 336°
2026-05-05 14:51 33.65989 121.41067 35126 ft 415 kts 336°
2026-05-05 14:52 33.71320 121.38409 35122 ft 415 kts 338°
2026-05-05 14:52 33.76702 121.35913 35124 ft 414 kts 338°
2026-05-05 14:53 33.82084 121.33424 35121 ft 414 kts 338°
2026-05-05 14:53 33.87445 121.30891 35114 ft 414 kts 338°
2026-05-05 14:54 33.92809 121.28343 35121 ft 414 kts 338°
2026-05-05 14:54 33.98121 121.25818 35128 ft 413 kts 338°
2026-05-05 14:55 34.03461 121.23283 35116 ft 412 kts 338°
2026-05-05 14:55 34.08814 121.20731 35128 ft 410 kts 338°
2026-05-05 14:56 34.14107 121.18205 35123 ft 408 kts 338°
2026-05-05 14:56 34.19378 121.15683 35129 ft 407 kts 339°
2026-05-05 14:57 34.24592 121.13192 35126 ft 405 kts 339°
2026-05-05 14:57 34.29820 121.10694 35122 ft 403 kts 339°
2026-05-05 14:58 34.35029 121.08193 35117 ft 402 kts 339°
2026-05-05 14:58 34.40223 121.05700 35113 ft 401 kts 339°
2026-05-05 14:59 34.45418 121.03211 35106 ft 401 kts 339°
2026-05-05 14:59 34.50596 121.00712 35111 ft 400 kts 339°
2026-05-05 15:00 34.54895 120.98632 35108 ft 400 kts 339°
2026-05-05 15:00 34.60929 120.95716 35104 ft 399 kts 339°
2026-05-05 15:02 34.75544 120.88663 35099 ft 396 kts 339°
2026-05-05 15:02 34.80662 120.86177 35100 ft 396 kts 339°
2026-05-05 15:03 34.85781 120.83684 35088 ft 395 kts 339°
2026-05-05 15:03 34.90887 120.81201 35093 ft 395 kts 339°
2026-05-05 15:04 34.95987 120.78712 35098 ft 395 kts 339°
2026-05-05 15:04 35.01077 120.76219 35088 ft 394 kts 339°
2026-05-05 15:05 35.08700 120.72496 35078 ft 393 kts 339°
2026-05-05 15:06 35.13782 120.70016 35076 ft 393 kts 339°
2026-05-05 15:06 35.16327 120.68774 34896 ft 394 kts 339°
2026-05-05 15:06 35.18834 120.67555 34577 ft 392 kts 339°
2026-05-05 15:06 35.21362 120.66328 34026 ft 391 kts 339°
2026-05-05 15:07 35.23918 120.65091 33414 ft 389 kts 339°
2026-05-05 15:07 35.26426 120.63878 32857 ft 386 kts 339°
2026-05-05 15:07 35.28883 120.62688 32322 ft 383 kts 339°
2026-05-05 15:07 35.31387 120.61471 31778 ft 381 kts 339°
2026-05-05 15:08 35.33844 120.60276 31250 ft 379 kts 339°
2026-05-05 15:08 35.36286 120.59084 30719 ft 377 kts 339°
2026-05-05 15:08 35.38686 120.57907 30211 ft 376 kts 339°
2026-05-05 15:08 35.41110 120.56727 29647 ft 374 kts 339°
2026-05-05 15:09 35.43515 120.55569 29137 ft 370 kts 339°
2026-05-05 15:09 35.45897 120.54421 28640 ft 366 kts 339°
2026-05-05 15:09 35.48160 120.53331 28160 ft 363 kts 339°
2026-05-05 15:09 35.50495 120.52205 27686 ft 359 kts 339°
2026-05-05 15:10 35.52809 120.51085 27202 ft 356 kts 339°
2026-05-05 15:10 35.55102 120.49971 26750 ft 352 kts 339°
2026-05-05 15:10 35.57370 120.48866 26296 ft 349 kts 339°
2026-05-05 15:10 35.59620 120.47766 25870 ft 346 kts 339°
2026-05-05 15:11 35.61847 120.46677 25455 ft 344 kts 339°
2026-05-05 15:11 35.64061 120.45595 25027 ft 342 kts 339°
2026-05-05 15:11 35.66269 120.44515 24616 ft 340 kts 338°
2026-05-05 15:11 35.68462 120.43442 24213 ft 339 kts 338°
2026-05-05 15:12 35.70650 120.42371 23796 ft 338 kts 338°
2026-05-05 15:12 35.72827 120.41309 23353 ft 337 kts 338°
2026-05-05 15:12 35.75003 120.40248 22911 ft 335 kts 338°
2026-05-05 15:12 35.77165 120.39192 22489 ft 333 kts 338°
2026-05-05 15:13 35.79320 120.38138 22093 ft 334 kts 337°
2026-05-05 15:13 35.81477 120.37085 21672 ft 333 kts 337°
2026-05-05 15:13 35.83625 120.36037 21249 ft 332 kts 337°
2026-05-05 15:13 35.85767 120.34992 20830 ft 330 kts 337°
2026-05-05 15:14 35.87901 120.33948 20412 ft 329 kts 337°
2026-05-05 15:14 35.89995 120.32918 20002 ft 328 kts 337°
2026-05-05 15:14 35.92134 120.31862 19580 ft 327 kts 337°
2026-05-05 15:14 35.94242 120.30822 19165 ft 326 kts 337°
2026-05-05 15:15 35.96345 120.29789 18757 ft 325 kts 338°
2026-05-05 15:15 35.98521 120.29049 18341 ft 326 kts 349°
2026-05-05 15:15 36.00772 120.28743 17903 ft 326 kts 353°
2026-05-05 15:15 36.02996 120.28491 17484 ft 324 kts 353°
2026-05-05 15:16 36.05234 120.28235 17073 ft 322 kts 353°
2026-05-05 15:16 36.07461 120.27973 16678 ft 321 kts 353°
2026-05-05 15:16 36.09682 120.27708 16281 ft 320 kts 353°
2026-05-05 15:16 36.11891 120.27443 15891 ft 319 kts 353°
2026-05-05 15:17 36.14094 120.27181 15500 ft 317 kts 353°
2026-05-05 15:17 36.16288 120.26916 15109 ft 317 kts 353°
2026-05-05 15:17 36.18479 120.26653 14727 ft 316 kts 352°
2026-05-05 15:17 36.20661 120.26394 14335 ft 315 kts 352°
2026-05-05 15:18 36.22846 120.26135 13941 ft 315 kts 352°
2026-05-05 15:18 36.25023 120.25877 13536 ft 314 kts 352°
2026-05-05 15:18 36.27196 120.25620 13131 ft 313 kts 353°
2026-05-05 15:18 36.29337 120.25219 12741 ft 310 kts 343°
2026-05-05 15:19 36.31387 120.24445 12351 ft 308 kts 340°
2026-05-05 15:19 36.33426 120.23649 11960 ft 307 kts 340°
2026-05-05 15:19 36.35460 120.22858 11564 ft 306 kts 340°
2026-05-05 15:19 36.37490 120.22066 11163 ft 305 kts 340°
2026-05-05 15:20 36.39511 120.21275 10778 ft 305 kts 340°
2026-05-05 15:20 36.41532 120.20484 10392 ft 304 kts 340°
2026-05-05 15:20 36.43543 120.19696 10117 ft 300 kts 340°
2026-05-05 15:20 36.45539 120.18913 10017 ft 302 kts 340°
2026-05-05 15:21 36.47542 120.18126 9864 ft 302 kts 340°
2026-05-05 15:21 36.49569 120.17331 9218 ft 310 kts 340°
2026-05-05 15:21 36.51613 120.16531 8894 ft 304 kts 340°
2026-05-05 15:21 36.53609 120.15751 8182 ft 299 kts 339°
2026-05-05 15:22 36.55585 120.14977 7386 ft 297 kts 339°
2026-05-05 15:22 36.57535 120.14213 7050 ft 289 kts 338°
2026-05-05 15:22 36.59378 120.13493 6884 ft 265 kts 336°
2026-05-05 15:22 36.60888 120.12407 6777 ft 244 kts 307°
2026-05-05 15:23 36.61732 120.10700 6676 ft 222 kts 281°
2026-05-05 15:23 36.61859 120.08832 6160 ft 217 kts 255°
2026-05-05 15:23 36.61434 120.07050 5583 ft 213 kts 248°
2026-05-05 15:23 36.60983 120.05330 5107 ft 205 kts 248°
2026-05-05 15:24 36.60554 120.03672 4659 ft 198 kts 248°
2026-05-05 15:24 36.60472 120.03355 4582 ft 196 kts 248°
2026-05-05 15:24 36.60068 120.01778 4512 ft 190 kts 247°
2026-05-05 15:24 36.59640 120.00221 4296 ft 187 kts 240°
2026-05-05 15:25 36.58744 119.99141 4220 ft 183 kts 202°
2026-05-05 15:25 36.57479 119.99125 4077 ft 190 kts 167°
2026-05-05 15:25 36.56223 119.99652 3857 ft 188 kts 168°
2026-05-05 15:25 36.55004 120.00126 3620 ft 177 kts 169°
2026-05-05 15:26 36.53861 120.00574 3387 ft 167 kts 169°
2026-05-05 15:26 36.52792 120.00996 3175 ft 154 kts 169°
2026-05-05 15:26 36.51803 120.01385 2983 ft 146 kts 170°
2026-05-05 15:26 36.50844 120.01762 2800 ft 143 kts 170°
2026-05-05 15:27 36.49913 120.02128 2624 ft 141 kts 170°
2026-05-05 15:27 36.48978 120.02496 2434 ft 140 kts 170°
2026-05-05 15:27 36.48462 120.02699 2331 ft 141 kts 170°
2026-05-05 15:27 36.47940 120.02903 2225 ft 141 kts 169°
2026-05-05 15:28 36.47006 120.03272 2041 ft 140 kts 169°
2026-05-05 15:28 36.46079 120.03638 1859 ft 140 kts 169°
2026-05-05 15:28 36.45155 120.04002 1670 ft 139 kts 169°
2026-05-05 15:28 36.44230 120.04366 1485 ft 139 kts 169°
2026-05-05 15:29 36.43306 120.04730 1301 ft 140 kts 168°
2026-05-05 15:29 36.42377 120.05095 1116 ft 141 kts 167°
2026-05-05 15:29 36.41446 120.05462 930 ft 141 kts 166°
2026-05-05 15:29 36.40519 120.05826 776 ft 138 kts 164°
2026-05-05 15:30 36.39599 120.06175 597 ft 139 kts 162°
2026-05-05 15:30 36.38681 120.06550 386 ft 140 kts 161°
2026-05-05 15:30 36.37759 120.06908 220 ft 140 kts 162°
2026-05-05 15:30 36.36834 120.07274 50 ft 138 kts 162°
2026-05-05 15:31 36.35995 120.07603 33 ft 108 kts 162°
2026-05-05 15:31 36.35465 120.07811 35 ft 45 kts 162°
2026-05-05 15:31 36.35257 120.07936 34 ft 23 kts 140°
2026-05-05 15:31 36.35167 120.08041 31 ft 13 kts 135°
2026-05-05 15:32 36.35162 120.08126 32 ft 10 kts 39°
2026-05-05 15:32 36.35217 120.08127 34 ft 7 kts 342°
2026-05-05 15:32 36.35254 120.08112 34 ft 5 kts 342°
2026-05-05 15:32 36.35255 120.08112 34 ft 5 kts 342°
2026-05-05 15:33 36.35280 120.08101 33 ft 5 kts 342°
2026-05-05 15:33 36.35312 120.08089 34 ft 6 kts 341°
2026-05-05 15:33 36.35368 120.08065 34 ft 9 kts 341°
2026-05-05 15:33 36.35428 120.08041 35 ft 9 kts 342°
2026-05-05 15:34 36.35486 120.08019 35 ft 9 kts 342°
2026-05-05 15:34 36.35543 120.07996 35 ft 9 kts 342°
2026-05-05 15:34 36.35600 120.07973 35 ft 9 kts 342°
2026-05-05 15:34 36.35678 120.07943 35 ft 14 kts 343°
2026-05-05 15:35 36.35757 120.07964 36 ft 12 kts 54°
2026-05-05 15:35 36.35787 120.08065 35 ft 13 kts 71°
2026-05-05 15:35 36.35829 120.08164 35 ft 13 kts 51°
2026-05-05 15:35 36.35890 120.08237 35 ft 10 kts 42°
2026-05-05 15:36 36.35932 120.08283 35 ft 6 kts 41°
2026-05-05 15:36 36.35954 120.08307 35 ft 3 kts 41°
2026-05-05 15:36 36.35968 120.08323 35 ft 2 kts 41°
2026-05-05 15:36 36.35983 120.08359 35 ft 8 kts 85°
2026-05-05 15:37 36.35967 120.08394 34 ft 2 kts 132°
2026-05-05 15:37 36.35958 120.08406 33 ft 0 kts 132°